TimeCDT,TemperatureF,Dew PointF,Humidity,Sea Level PressureIn,VisibilityMPH,Wind Direction,Wind SpeedMPH,Gust SpeedMPH,PrecipitationIn,Events,Conditions,WindDirDegrees,DateUTC
12:53 AM,50.0,43.0,77,30.21,10.0,Calm,Calm,-,N/A,,Overcast,0,2011-11-05 05:53:00
1:53 AM,50.0,43.0,77,30.21,9.0,Calm,Calm,-,N/A,,Overcast,0,2011-11-05 06:53:00
2:53 AM,48.0,43.0,83,30.20,8.0,NE,3.5,-,N/A,,Mostly Cloudy,50,2011-11-05 07:53:00
3:03 AM,46.4,42.8,87,30.20,7.0,NE,3.5,-,N/A,,Scattered Clouds,40,2011-11-05 08:03:00
3:20 AM,46.4,42.8,87,30.20,6.0,NE,3.5,-,N/A,,Mostly Cloudy,40,2011-11-05 08:20:00
3:53 AM,46.4,42.8,87,30.19,6.0,NE,3.5,-,N/A,,Overcast,50,2011-11-05 08:53:00
4:53 AM,45.0,42.1,90,30.19,4.0,Calm,Calm,-,N/A,,Scattered Clouds,0,2011-11-05 09:53:00
5:37 AM,44.6,41.0,87,30.20,4.0,ENE,3.5,-,N/A,,Mostly Cloudy,60,2011-11-05 10:37:00
5:53 AM,46.0,43.0,89,30.20,4.0,Calm,Calm,-,N/A,,Overcast,0,2011-11-05 10:53:00
6:53 AM,46.4,42.8,87,30.20,4.0,NE,3.5,-,N/A,,Overcast,50,2011-11-05 11:53:00
7:53 AM,46.9,44.1,90,30.20,3.0,ENE,4.6,-,N/A,,Overcast,60,2011-11-05 12:53:00
8:53 AM,48.0,44.1,86,30.23,4.0,Calm,Calm,-,N/A,,Overcast,0,2011-11-05 13:53:00
9:53 AM,50.0,45.0,83,30.23,5.0,Calm,Calm,-,N/A,,Haze,0,2011-11-05 14:53:00
10:33 AM,53.6,44.6,72,30.22,7.0,Variable,3.5,-,N/A,,Scattered Clouds,0,2011-11-05 15:33:00
10:53 AM,54.0,45.0,72,30.22,7.0,SE,3.5,-,N/A,,Clear,130,2011-11-05 15:53:00
11:53 AM,57.0,44.1,62,30.21,9.0,SSE,6.9,-,N/A,,Partly Cloudy,160,2011-11-05 16:53:00
12:53 PM,59.0,45.0,60,30.17,10.0,Calm,Calm,-,N/A,,Clear,0,2011-11-05 17:53:00
1:53 PM,61.0,45.0,56,30.13,10.0,South,8.1,-,N/A,,Clear,170,2011-11-05 18:53:00
2:53 PM,62.1,44.1,52,30.11,10.0,ESE,5.8,-,N/A,,Clear,120,2011-11-05 19:53:00
3:53 PM,64.0,43.0,46,30.09,10.0,SSE,11.5,-,N/A,,Clear,150,2011-11-05 20:53:00
4:53 PM,63.0,44.1,50,30.08,10.0,SSE,9.2,-,N/A,,Clear,160,2011-11-05 21:53:00
5:53 PM,61.0,45.0,56,30.06,10.0,SE,6.9,-,N/A,,Clear,130,2011-11-05 22:53:00
6:53 PM,55.0,44.1,67,30.07,10.0,ESE,5.8,-,N/A,,Clear,120,2011-11-05 23:53:00
7:53 PM,53.1,43.0,69,30.07,10.0,ESE,3.5,-,N/A,,Clear,120,2011-11-06 00:53:00
8:53 PM,52.0,43.0,71,30.08,10.0,SE,5.8,-,N/A,,Clear,130,2011-11-06 01:53:00
9:53 PM,52.0,44.1,74,30.08,10.0,SE,3.5,-,N/A,,Clear,130,2011-11-06 02:53:00
10:53 PM,50.0,43.0,77,30.09,10.0,SSE,4.6,-,N/A,,Clear,150,2011-11-06 03:53:00
11:53 PM,51.1,44.1,77,30.09,10.0,South,5.8,-,N/A,,Clear,170,2011-11-06 04:53:00